Find Starlink 31283

NORAD ID: 59174 Int'l Des: 2024-044 Owner: SPXS Country: US Constellation: starlink operational
LEOCIRCULAR

リアルタイム位置

3D地球を読み込み中...

Starlink 31283について

説明を読み込み中...

次回通過

Passes for default location (London). Set your location on the main map for personalized predictions.

高度履歴

Loading altitude history...

軌道要素

1 59174U 24044Y 26119.58334491 .00022504 00000-0 82495-3 0 9990
2 59174 42.9990 132.6916 0001399 277.5234 6.2276 15.27574444 5855
Epoch: Apr 29, 2026 • Age: 7 hours

現在のステータス

高度 484.5 km
速度 7.63 km/s
衛星直下点 30.30°N, 96.8°E
打ち上げ日 Mar 4, 2024
運用期間 2.1 years
タイプ internet

技術仕様

分類 Payload
質量 730.00 kg
乾燥質量 700.00 kg
総質量 730.00 kg
長さ 0.30 m
直径 4.10 m
スパン 29.00 m
形状 Box + pan
製造者 SPXS
バスタイプ Starlink V2M
フェーズステータス In Orbit
所有者/国 SPXS/US

Most Searched